Date,TemperatureHighF,TemperatureAvgF,TemperatureLowF,DewpointHighF,DewpointAvgF,DewpointLowF,HumidityHigh,HumidityAvg,HumidityLow,PressureMaxIn,PressureMinIn,WindSpeedMaxMPH,WindSpeedAvgMPH,GustSpeedMaxMPH,PrecipitationSumIn
2013-1-11,29.5,28.2,27.5,16.9,16.5,15.9,64,61,58,30.06,30.00,10,6,10,0.10
2013-1-12,30.7,27.5,23.0,23.7,16.7,12.8,83,64,50,30.15,30.06,8,4,8,0.00
2013-1-13,29.5,27.5,24.8,24.0,22.1,18.8,89,80,69,30.18,30.06,15,4,15,0.00
2013-1-14,34.2,30.8,26.6,33.7,27.2,15.3,98,87,58,30.12,29.88,22,8,22,0.20
2013-1-15,37.8,34.9,32.7,36.9,34.1,32.2,98,97,92,29.94,29.71,7,2,7,1.14
2013-1-16,37.0,34.8,32.0,36.5,34.2,30.5,98,98,92,29.71,29.56,10,4,10,0.01
2013-1-17,35.1,34.3,33.6,34.2,32.4,29.9,98,93,82,29.71,29.53,9,2,9,0.15
2013-1-18,34.2,32.8,30.0,31.8,29.3,26.0,96,87,73,29.71,29.44,9,3,9,0.25
2013-1-19,30.0,27.1,25.5,28.8,22.3,18.8,95,82,68,29.62,29.41,6,1,6,0.25
2013-1-20,34.3,31.1,27.9,33.8,29.7,22.8,98,94,82,29.62,29.41,10,4,10,0.00
2013-1-21,41.0,37.6,34.3,40.5,37.1,33.8,98,98,98,29.47,29.35,9,3,9,0.04
2013-1-22,37.0,31.9,27.5,36.5,29.9,24.4,98,92,81,29.65,29.35,12,5,12,0.03
2013-1-23,33.1,29.7,25.9,29.1,25.4,22.6,90,84,75,29.83,29.59,10,4,10,0.03
2013-1-24,33.8,30.8,28.6,31.9,27.9,20.0,98,89,70,29.77,29.65,14,5,14,0.01
2013-1-25,32.0,29.0,26.1,20.2,15.9,11.4,71,58,51,29.94,29.65,12,6,12,0.00
2013-1-26,32.9,27.7,23.2,16.7,14.0,11.7,64,56,50,30.03,29.83,8,3,8,0.00
2013-1-27,30.0,25.1,17.4,24.0,16.5,11.1,81,70,54,30.00,29.83,6,1,6,0.00
2013-1-28,32.5,30.3,28.4,28.2,26.2,24.0,90,84,79,30.09,29.80,3,0,2,0.00
2013-1-29,36.0,29.6,20.7,35.0,26.9,16.6,98,90,84,30.15,29.91,6,0,6,0.00
2013-1-30,41.0,37.1,34.2,40.5,36.5,32.3,98,97,93,29.97,29.74,6,1,6,0.05
2013-1-31,49.3,46.1,37.0,45.9,30.1,24.2,98,56,38,30.00,29.71,25,9,25,0.05
2013-2-1,49.5,45.2,41.0,31.3,28.0,24.8,66,52,40,29.85,29.47,16,5,16,0.01
2013-2-2,44.8,41.5,38.1,42.9,36.3,30.1,97,82,65,29.47,29.24,13,5,13,0.19
2013-2-3,39.0,34.8,30.2,32.8,28.0,16.9,94,77,54,30.00,29.44,14,6,14,0.19
2013-2-4,37.0,32.6,26.4,29.6,24.4,17.2,85,72,59,30.00,29.91,13,3,13,0.02
2013-2-5,41.9,35.6,32.5,32.7,30.5,29.6,90,82,66,30.00,29.68,9,2,9,0.02
2013-2-6,39.6,36.0,33.1,37.2,34.9,31.6,98,96,73,29.71,29.44,9,4,9,0.21
2013-2-7,34.3,32.5,26.1,33.1,30.5,22.8,96,92,83,29.74,29.41,12,3,12,0.65
2013-2-8,36.3,29.4,25.2,25.0,22.0,19.4,89,75,51,29.85,29.68,6,3,6,0.01
2013-2-9,33.6,27.6,21.4,27.2,22.6,18.1,93,82,62,29.91,29.80,4,4,4,0.04
2013-2-10,31.1,28.7,25.9,29.0,26.4,24.1,93,91,87,29.91,29.74,4,4,4,0.28
2013-2-11,30.9,26.2,23.0,27.2,24.0,20.4,95,91,81,29.91,29.80,4,4,4,0.28
2013-2-12,36.0,31.0,24.4,32.1,26.0,21.8,90,82,74,29.85,29.74,4,4,4,0.03
2013-2-13,42.4,38.2,34.7,34.2,31.5,28.7,90,77,60,30.03,29.85,4,4,4,0.05
2013-2-14,38.3,36.8,34.5,35.7,33.2,30.1,96,87,74,30.09,30.00,5,3,5,0.05
2013-2-15,44.8,40.5,36.1,38.6,35.7,33.8,96,83,72,30.09,30.00,6,2,6,0.00
2013-2-16,45.0,36.2,29.3,36.2,31.1,25.3,96,83,54,30.15,30.03,9,3,9,0.00
2013-2-17,37.6,34.6,30.7,31.3,29.6,27.7,93,82,73,30.15,30.09,7,2,7,0.00
2013-2-18,37.9,33.6,30.0,30.6,28.4,26.3,90,81,67,30.15,29.97,6,2,6,0.00
2013-2-19,38.5,32.1,29.5,32.2,29.4,24.1,98,90,56,30.09,29.80,13,2,13,0.04
2013-2-20,36.9,31.7,26.8,32.1,25.7,21.4,97,79,60,30.06,29.85,12,4,12,0.37
2013-2-21,36.3,31.7,26.8,24.2,20.4,14.9,84,64,42,30.12,29.97,10,5,10,0.00
2013-2-22,32.7,30.5,27.0,32.0,27.3,20.0,98,88,67,29.97,29.74,13,4,13,0.24
2013-2-23,40.1,35.7,32.4,39.4,35.1,31.9,98,98,97,29.85,29.68,17,6,17,0.45
2013-2-24,43.2,41.4,39.2,42.6,40.7,38.7,98,97,92,29.94,29.77,18,9,18,0.37
2013-2-25,48.4,45.1,42.3,45.7,42.9,41.1,98,92,83,30.15,29.91,15,5,15,0.37
2013-2-26,52.5,47.2,43.9,44.1,42.2,40.8,93,83,71,30.12,30.03,13,3,13,0.00
2013-2-27,48.0,43.2,38.7,42.9,39.1,37.0,96,85,69,30.30,30.06,8,2,8,0.02
2013-2-28,51.6,41.1,32.7,38.1,33.7,29.1,97,76,48,30.33,30.15,10,2,10,0.02
2013-3-1,38.7,35.6,32.2,37.5,32.5,27.8,98,89,77,30.18,30.00,13,4,13,0.00
2013-3-2,45.0,36.2,28.2,28.3,25.3,22.6,81,66,44,30.18,30.06,8,3,8,0.00
2013-3-3,46.9,35.8,26.1,28.3,24.7,22.1,89,66,41,30.15,30.00,17,5,17,0.00
2013-3-4,47.8,34.8,26.2,26.2,22.8,20.8,85,64,39,30.33,30.06,13,2,13,0.00
2013-3-5,50.4,37.8,25.9,27.7,23.1,20.0,79,57,37,30.36,30.12,14,3,14,0.00
2013-3-6,49.3,41.9,33.3,37.6,30.7,23.2,75,64,57,30.18,29.83,10,3,10,0.00
2013-3-7,53.2,48.6,44.6,45.3,42.2,37.5,86,79,72,29.83,29.65,8,3,8,0.01
2013-3-8,55.8,47.6,44.4,49.5,46.0,43.1,98,94,78,29.71,29.53,8,4,8,0.07
2013-3-9,55.6,49.6,45.5,51.8,47.5,45.0,98,93,79,29.59,29.53,6,2,6,0.02
2013-3-10,54.9,49.3,45.7,49.7,46.3,43.1,98,90,72,29.56,29.41,10,2,10,0.03
2013-3-11,57.4,47.1,38.1,45.8,39.5,31.7,98,77,47,29.59,29.47,13,4,13,0.03
2013-3-12,55.2,46.2,36.0,42.2,36.5,30.1,88,69,53,29.59,29.41,11,2,11,0.04
2013-3-13,49.5,46.1,43.9,47.1,43.8,40.8,98,92,79,29.50,29.41,7,2,7,0.09
2013-3-14,45.1,36.7,27.1,43.8,36.1,26.7,98,98,94,29.47,29.29,17,8,17,0.49
2013-3-15,28.6,26.4,23.5,27.0,21.3,13.8,98,83,56,29.88,29.29,20,8,20,0.05
2013-3-16,33.8,27.7,20.3,18.4,16.1,12.0,80,63,43,30.15,29.88,13,4,13,0.05
2013-3-17,35.6,27.0,18.5,22.4,17.3,13.6,83,67,53,30.15,30.00,15,5,15,0.00
2013-3-18,36.3,31.8,26.8,35.8,25.7,15.0,98,79,59,30.03,29.38,21,10,21,0.36
2013-3-19,50.2,42.1,32.2,30.5,29.0,26.4,79,61,42,29.71,29.41,26,5,26,0.01
2013-3-20,57.6,44.2,29.8,39.3,33.8,25.8,93,69,40,29.77,29.71,14,2,14,0.01
2013-3-21,46.0,41.4,34.5,43.1,39.4,29.8,98,93,77,29.80,29.71,20,8,20,0.50
2013-3-22,42.6,35.7,29.3,29.9,25.3,20.7,83,66,50,30.00,29.77,22,10,22,0.50
2013-3-23,33.1,29.3,25.7,24.0,21.7,15.5,83,73,64,30.12,29.94,10,2,10,0.00
2013-3-24,34.0,27.1,20.8,15.9,10.4,6.9,64,49,41,30.21,30.06,14,6,14,0.00
2013-3-25,34.9,29.5,26.2,25.7,15.7,8.2,91,59,42,30.09,29.71,15,6,15,0.33
2013-3-26,32.7,28.9,26.1,27.3,25.6,23.5,93,87,77,29.80,29.68,8,4,8,0.10
2013-3-27,32.5,29.4,26.1,29.7,27.0,24.1,95,91,83,29.94,29.77,4,4,4,0.03
2013-3-28,37.4,33.0,30.2,31.1,28.6,25.0,97,84,68,30.06,29.94,4,4,4,0.02
2013-3-29,36.9,33.9,32.2,36.3,32.6,28.8,98,95,86,29.97,29.71,5,4,5,0.54
2013-3-30,45.3,39.2,32.9,41.9,37.4,32.4,98,93,80,29.77,29.53,15,4,15,0.22
2013-3-31,48.0,41.0,31.5,47.5,40.1,27.5,98,97,85,29.62,29.35,17,7,17,0.24
2013-4-1,44.2,35.7,30.6,27.8,25.8,22.5,86,68,47,29.88,29.59,14,6,14,0.24
2013-4-2,43.5,37.8,31.1,39.4,28.9,21.9,97,71,58,29.88,29.65,20,6,20,0.42
2013-4-3,43.2,40.5,38.3,42.6,40.0,37.8,98,98,97,29.74,29.59,13,5,13,0.04
2013-4-4,43.5,39.5,35.2,36.8,35.0,32.1,98,84,74,29.88,29.71,11,4,11,0.00
2013-4-5,42.1,38.8,32.9,41.2,37.3,31.5,98,95,84,29.88,29.65,15,4,15,0.12
2013-4-6,48.2,42.1,38.3,41.4,37.8,32.4,98,85,66,30.00,29.71,13,4,13,0.13
2013-4-7,45.5,40.8,37.8,38.7,34.8,30.1,90,79,67,30.03,29.88,12,3,12,0.00
2013-4-8,53.1,42.8,36.5,32.8,28.4,23.9,75,57,39,29.94,29.74,10,3,10,0.00
2013-4-9,51.8,45.2,39.9,40.8,37.8,32.6,89,76,58,29.83,29.71,9,3,9,0.00
2013-4-10,57.0,47.2,39.4,45.6,41.7,34.8,98,83,53,29.91,29.74,10,3,10,0.00
2013-4-11,66.2,51.0,34.5,44.5,39.7,32.4,97,68,42,29.94,29.77,15,4,15,0.00
2013-4-12,62.8,54.3,46.8,50.5,45.2,41.0,96,72,48,29.83,29.71,16,5,16,0.16
2013-4-13,62.2,51.2,41.0,46.4,41.7,36.1,98,73,43,30.27,29.80,23,5,23,0.16
2013-4-14,63.0,51.5,37.0,41.4,35.6,30.5,92,58,35,30.36,30.21,13,4,13,0.00
2013-4-15,64.8,50.4,38.5,40.5,36.1,32.3,87,60,35,30.39,30.21,9,2,9,0.00
2013-4-16,69.1,53.1,36.9,39.6,34.8,30.4,82,53,30,30.33,30.18,11,2,11,0.00
2013-4-17,69.8,55.8,39.6,41.9,37.2,32.9,81,53,32,30.33,30.15,7,2,7,0.00
2013-4-18,75.7,59.0,42.4,46.6,40.3,36.7,84,53,29,30.21,30.03,7,2,7,0.00
2013-4-19,76.1,60.2,44.6,45.4,39.7,35.8,74,49,29,30.09,29.94,9,2,9,0.00
2013-4-20,74.8,60.7,47.5,52.7,46.0,37.0,92,61,34,30.12,29.97,12,3,12,0.00
2013-4-21,71.8,61.0,50.4,45.2,42.7,36.5,70,52,36,30.12,29.91,15,6,15,0.00
2013-4-22,73.8,61.8,51.3,45.1,39.4,32.6,60,44,33,30.00,29.88,13,4,13,0.00
2013-4-23,74.1,61.3,47.8,52.5,46.5,42.5,85,60,36,30.24,29.97,13,3,13,0.00
2013-4-24,77.2,61.9,46.8,49.5,43.4,37.4,87,54,31,30.36,30.18,14,2,14,0.00
2013-4-25,80.2,63.0,46.0,47.9,43.1,38.7,79,52,25,30.27,30.12,12,2,12,0.00
2013-4-26,83.8,66.1,48.6,52.1,44.9,40.0,84,51,24,30.15,29.74,14,3,14,0.00
2013-4-27,81.0,67.9,54.9,52.0,46.5,40.9,64,47,33,29.77,29.65,21,5,21,0.00
2013-4-28,76.6,64.7,55.8,59.1,52.7,46.4,90,67,44,29.97,29.71,17,4,17,0.06
2013-4-29,83.5,66.8,50.9,57.0,51.1,45.5,97,62,30,30.06,29.94,21,5,21,0.07
2013-4-30,85.5,69.9,54.9,58.8,52.2,46.9,85,56,32,30.12,29.94,12,2,12,0.00
2013-5-1,85.5,69.7,56.7,57.9,52.9,49.0,80,58,31,30.15,29.97,10,2,10,0.00
2013-5-2,82.0,69.3,60.1,60.8,56.0,50.3,87,63,46,30.09,29.83,15,5,15,0.04
2013-5-3,75.4,64.7,56.1,62.1,57.6,51.5,92,78,56,29.91,29.80,13,4,13,0.05
2013-5-4,73.6,60.3,50.5,55.9,51.8,48.7,96,75,52,30.09,29.88,11,4,11,0.00
2013-5-5,77.5,64.9,50.9,56.9,51.7,48.1,93,65,41,30.21,30.03,14,3,14,0.00
2013-5-6,74.5,65.0,61.0,61.0,53.9,46.3,92,69,48,30.18,30.00,21,5,21,0.20
2013-5-7,70.0,66.1,60.4,63.4,60.0,56.4,94,81,71,30.15,30.00,14,5,14,0.05
2013-5-8,77.9,64.1,55.9,62.8,57.6,53.5,98,81,50,30.12,30.00,7,1,7,0.09
2013-5-9,79.9,65.8,55.2,60.3,54.3,49.5,96,69,41,30.15,30.00,10,2,10,0.09
2013-5-10,80.4,63.1,51.6,53.9,49.3,28.1,88,64,36,30.09,29.85,8,1,8,0.00
2013-5-11,77.7,64.1,56.1,62.0,55.7,48.2,92,75,54,29.91,29.74,12,5,12,0.06
2013-5-12,66.7,58.5,52.9,55.9,52.3,47.1,97,81,65,29.83,29.74,14,6,14,0.06
2013-5-13,63.3,55.6,49.6,48.3,44.2,36.7,86,67,46,30.00,29.80,18,10,18,0.03
2013-5-14,65.3,54.9,45.9,48.4,44.3,38.7,83,68,51,30.03,29.91,13,5,13,0.00
2013-5-15,74.1,60.1,47.5,54.0,49.3,44.1,94,69,46,29.97,29.80,10,3,10,0.00
2013-5-16,76.5,63.8,49.5,55.9,52.2,46.4,94,68,44,29.88,29.68,17,5,17,0.00
2013-5-17,68.5,64.1,61.0,60.1,57.2,54.2,92,78,70,29.77,29.68,18,5,18,0.01
2013-5-18,75.4,64.7,53.2,56.3,51.3,47.5,98,64,41,30.00,29.85,14,5,14,0.00
2013-5-19,81.1,66.3,49.6,57.5,52.5,47.2,95,65,40,29.97,29.77,15,4,15,0.06
2013-5-20,72.1,63.2,53.4,53.8,49.2,44.5,82,61,40,29.97,29.91,15,4,15,0.00
2013-5-21,71.4,60.0,48.9,50.4,46.3,42.4,92,63,38,29.97,29.80,17,4,17,0.00
2013-5-22,68.7,58.5,51.3,53.2,49.2,44.4,86,72,50,29.83,29.65,12,3,12,0.03
2013-5-23,64.2,55.9,49.5,50.0,46.7,42.4,93,72,57,29.71,29.59,14,6,14,0.03
2013-5-24,67.6,56.6,50.2,49.3,45.4,42.6,78,67,46,29.77,29.62,11,3,11,0.00
2013-5-25,64.8,54.6,47.8,53.5,47.0,43.4,92,76,49,29.80,29.71,10,3,10,0.12
2013-5-26,59.2,52.4,47.8,51.6,47.0,39.2,97,82,58,29.83,29.71,12,3,12,0.02
2013-5-27,58.1,50.7,43.9,46.9,42.6,37.7,89,74,61,29.85,29.77,13,4,13,0.04
2013-5-28,69.1,56.3,46.4,54.4,47.6,41.6,88,74,50,29.85,29.71,21,4,21,0.00
2013-5-29,77.2,62.1,47.7,57.6,52.6,45.5,96,73,48,29.77,29.56,13,4,13,0.00
2013-5-30,64.4,59.2,52.7,60.6,56.0,49.8,98,90,76,29.62,29.47,13,3,13,0.35
2013-5-31,60.8,53.8,46.9,54.6,50.6,46.1,98,89,73,29.65,29.53,10,3,10,0.09
2013-6-1,67.8,54.4,43.3,54.8,49.3,42.8,98,84,56,29.74,29.62,10,2,10,0.09
2013-6-2,70.0,58.0,48.6,55.8,51.5,45.3,98,80,49,29.85,29.71,11,3,11,0.00
2013-6-3,62.6,55.9,50.9,54.1,50.7,47.5,96,83,69,29.94,29.80,16,8,16,0.00
2013-6-4,67.8,56.8,50.9,59.8,54.3,48.7,98,92,70,29.94,29.80,14,5,14,0.23
2013-6-5,69.1,59.3,53.2,62.1,57.2,52.7,98,93,72,30.03,29.88,8,2,8,0.31
2013-6-6,70.3,60.6,53.8,64.2,58.6,53.2,98,94,71,30.09,29.97,9,3,9,0.07
2013-6-7,79.7,66.2,57.2,63.6,58.5,54.9,98,79,47,30.06,29.91,12,4,12,0.07
2013-6-8,79.9,67.8,58.8,60.6,57.0,54.0,87,69,45,30.00,29.88,9,3,9,0.00
2013-6-9,84.2,69.7,56.1,63.5,57.9,53.7,97,69,40,29.88,29.74,10,2,10,0.00
2013-6-10,81.7,67.3,57.9,60.7,58.4,53.5,97,75,43,29.80,29.65,22,3,22,0.22
2013-6-11,69.4,61.2,55.6,62.8,57.5,51.1,98,88,68,29.88,29.71,11,3,11,0.22
2013-6-12,75.4,64.3,54.0,57.3,53.4,50.6,90,69,48,30.12,29.88,14,6,14,0.00
2013-6-13,83.3,68.6,56.5,55.8,52.1,48.6,77,58,37,30.12,29.97,14,5,14,0.00
2013-6-14,85.5,70.2,55.9,60.3,56.1,52.4,94,64,39,30.06,29.88,10,3,10,0.00
2013-6-15,86.5,72.6,60.4,64.4,59.9,55.5,91,67,40,30.00,29.88,8,3,8,0.00
2013-6-16,87.1,73.5,61.7,64.9,61.7,57.2,92,68,43,30.03,29.94,10,2,10,0.00
2013-6-17,93.4,76.8,62.1,68.2,63.3,59.6,93,66,37,30.03,29.91,7,2,7,0.00
2013-6-18,96.3,79.7,65.1,70.2,63.7,59.6,92,62,32,30.06,29.91,10,2,10,0.00
2013-6-19,99.0,81.5,66.9,68.9,63.9,58.2,85,58,30,30.09,29.91,11,3,11,0.00
2013-6-20,95.0,81.5,72.1,72.8,67.4,62.7,74,63,42,30.03,29.88,14,4,14,0.00
2013-6-21,96.8,82.0,70.9,71.0,65.5,59.0,86,60,30,29.97,29.85,12,2,12,0.00
2013-6-22,93.6,79.1,68.0,73.2,64.9,57.9,87,64,34,29.97,29.83,14,3,14,0.10
2013-6-23,84.9,75.0,66.7,70.9,65.8,61.1,89,74,55,29.94,29.83,10,3,10,0.01
2013-6-24,79.5,66.4,56.8,65.8,60.9,55.5,97,84,56,29.94,29.80,14,5,14,0.11
2013-6-25,58.8,56.5,53.4,56.6,54.6,52.0,96,93,87,30.12,29.83,13,6,13,0.04
2013-6-26,65.7,57.7,52.9,51.9,49.9,47.4,94,76,55,30.24,30.06,16,8,16,0.04
2013-6-27,64.4,55.3,51.4,55.3,50.7,46.6,94,85,69,30.24,30.12,10,5,10,0.01
2013-6-28,71.8,59.8,53.8,57.1,54.5,50.7,98,84,54,30.15,30.00,7,2,7,0.06
2013-6-29,77.9,63.2,54.5,59.1,54.0,46.9,98,75,39,30.09,29.88,13,3,13,0.06
2013-6-30,72.7,63.5,54.9,56.2,51.1,46.7,86,66,44,30.06,29.94,18,7,18,0.00
2013-7-1,75.9,62.7,51.1,49.4,45.8,42.9,75,56,35,30.12,30.00,14,5,14,0.00
2013-7-2,82.8,66.1,52.5,50.5,47.6,45.2,77,54,32,30.12,29.94,6,1,6,0.00
2013-7-3,87.3,69.6,53.6,55.5,51.1,46.0,79,55,30,30.06,29.85,13,2,13,0.00
2013-7-4,89.8,73.9,57.2,58.7,51.9,46.6,80,50,24,30.03,29.88,12,3,12,0.00
2013-7-5,82.9,73.3,62.8,60.4,57.1,51.9,74,58,43,30.12,30.03,17,6,17,0.00
2013-7-6,89.8,75.1,65.3,64.6,60.5,56.9,82,62,39,30.21,30.09,17,6,17,0.00
2013-7-7,90.0,76.1,65.7,63.4,59.3,56.0,78,58,36,30.21,30.09,13,5,13,0.00
2013-7-8,86.7,74.2,65.3,58.5,55.2,50.8,69,53,36,30.24,30.12,12,4,12,0.00
2013-7-9,87.4,74.2,63.1,58.0,53.2,49.8,65,49,32,30.21,30.00,13,4,13,0.00
2013-7-10,89.6,74.4,60.4,59.7,54.4,51.1,75,52,31,30.06,29.77,10,2,10,0.00
2013-7-11,78.4,68.7,59.7,61.3,54.7,46.9,82,62,43,29.97,29.80,15,5,15,0.00
2013-7-12,75.7,65.3,56.3,53.1,49.8,47.3,80,59,39,30.09,29.97,14,5,14,0.00
2013-7-13,75.6,66.2,55.8,54.4,50.6,47.9,82,59,42,30.15,30.03,15,5,15,0.00
2013-7-14,81.9,69.3,57.0,53.8,48.9,44.4,76,51,32,30.15,30.00,15,5,15,0.00
2013-7-15,81.0,68.2,59.2,57.9,50.5,43.1,73,55,32,30.15,29.97,18,6,18,0.00
2013-7-16,83.1,68.3,55.2,51.7,48.2,44.3,73,51,30,30.24,30.09,10,4,10,0.00
2013-7-17,88.7,70.5,56.7,56.5,52.1,48.4,79,55,30,30.27,30.09,9,2,9,0.00
2013-7-18,84.9,72.0,59.4,60.4,55.6,51.7,80,58,39,30.21,30.09,8,2,8,0.00
2013-7-19,88.3,72.8,64.8,66.5,59.2,54.7,89,64,39,30.15,29.94,8,2,8,0.11
2013-7-20,86.7,73.5,59.7,60.3,55.2,48.2,84,56,32,30.09,29.91,12,5,12,0.11
2013-7-21,86.0,71.2,60.6,51.7,47.7,44.4,59,44,30,30.15,30.03,11,3,11,0.00
2013-7-22,89.1,71.9,55.9,53.6,50.0,46.4,75,48,28,30.15,29.91,10,2,10,0.00
2013-7-23,91.2,75.2,59.7,55.4,50.7,46.4,72,46,24,29.97,29.83,13,3,13,0.00
2013-7-24,92.7,75.4,63.7,53.1,46.6,38.6,64,39,19,30.00,29.85,14,4,14,0.00
2013-7-25,84.6,72.0,63.0,57.6,50.9,39.8,71,48,38,30.03,29.91,8,2,8,0.00
2013-7-26,93.0,75.6,61.3,58.8,55.4,52.0,77,53,28,30.03,29.88,13,3,13,0.00
2013-7-27,97.0,78.3,64.2,62.8,58.3,53.1,74,53,29,29.97,29.83,9,2,9,0.00
2013-7-28,101.5,82.3,67.5,66.0,58.7,53.1,80,49,22,30.00,29.85,12,3,12,0.00
2013-7-29,102.0,84.1,68.4,61.6,57.8,49.7,64,43,26,30.00,29.77,14,4,14,0.00
2013-7-30,81.9,73.5,66.6,65.3,56.2,49.0,88,56,33,30.09,29.83,23,9,23,0.08
2013-7-31,86.0,73.8,62.6,57.7,53.3,49.9,71,50,32,30.12,30.00,15,5,15,0.00
2013-8-1,88.3,75.1,64.8,58.9,56.0,53.2,68,53,36,30.12,30.00,14,3,14,0.00
2013-8-2,96.6,76.6,61.7,74.5,58.0,53.1,83,56,26,30.15,29.94,10,2,10,0.00
2013-8-3,99.0,80.2,63.9,62.5,56.8,51.6,78,49,22,30.00,29.94,10,2,10,0.00
2013-8-4,97.7,81.3,72.1,58.9,55.9,49.5,60,43,27,30.12,30.00,14,4,14,0.00
2013-8-5,97.3,80.5,68.2,61.6,57.1,49.6,70,47,27,30.18,29.97,14,4,14,0.00
2013-8-6,101.3,81.5,67.8,62.6,58.0,54.1,67,47,25,30.06,29.91,9,2,9,0.00
2013-8-7,101.3,82.7,68.7,61.7,56.5,51.8,62,43,25,30.00,29.88,10,2,10,0.00
2013-8-8,104.5,84.3,68.4,61.9,55.7,52.1,60,40,20,30.03,29.88,12,2,12,0.00
2013-8-9,101.8,83.8,69.4,62.8,56.3,53.1,62,41,22,30.00,29.77,20,2,20,0.00
2013-8-10,77.4,70.9,66.4,63.2,58.9,54.3,77,66,53,30.00,29.85,22,9,22,0.00
2013-8-11,87.3,72.5,64.0,55.5,50.4,43.1,70,49,24,30.00,29.88,13,4,13,0.00
2013-8-12,89.6,73.5,60.3,55.1,50.1,46.0,66,46,28,30.06,29.91,12,3,12,0.00
2013-8-13,87.1,73.0,60.8,55.9,51.8,48.7,66,49,31,30.03,29.88,15,5,15,0.01
2013-8-14,75.2,67.2,59.9,58.1,51.5,43.3,90,59,34,30.18,29.97,14,4,14,0.04
2013-8-15,81.5,64.9,52.5,57.3,50.1,44.3,93,63,33,30.24,30.12,11,2,11,0.04
2013-8-16,85.5,67.3,53.1,49.6,45.2,41.6,70,48,25,30.24,30.06,9,2,9,0.00
2013-8-17,90.1,69.7,53.8,51.3,45.5,40.8,68,45,23,30.12,29.97,8,2,8,0.00
2013-8-18,94.6,72.9,56.1,52.6,46.7,42.5,66,42,21,30.12,29.91,9,2,9,0.00
2013-8-19,96.8,76.2,58.8,54.0,48.3,44.9,64,40,21,30.03,29.85,9,2,9,0.00
2013-8-20,79.2,71.2,65.3,61.1,57.6,45.0,78,63,36,30.18,29.94,17,7,17,0.00
2013-8-21,79.2,68.1,60.8,63.1,59.3,55.1,94,75,54,30.24,30.12,12,4,12,0.09
2013-8-22,83.3,68.2,56.3,58.1,54.3,49.2,87,63,39,30.18,30.00,10,2,10,0.00
2013-8-23,84.6,69.8,58.3,54.3,50.0,46.4,69,51,34,30.12,29.94,12,3,12,0.00
2013-8-24,76.1,68.9,61.0,51.0,48.9,46.3,62,49,41,30.03,29.88,9,4,9,0.00
2013-8-25,78.6,68.1,61.3,58.9,52.0,47.1,90,59,40,29.94,29.80,12,4,12,0.11
2013-8-26,66.6,62.5,60.1,63.9,59.6,57.0,98,90,81,30.00,29.88,9,3,9,0.91
2013-8-27,77.5,64.6,58.6,63.1,59.3,56.5,98,84,59,30.00,29.88,8,3,8,0.91
2013-8-28,70.2,63.3,58.8,63.8,58.4,55.1,98,84,69,30.00,29.88,13,4,13,0.53
2013-8-29,74.1,63.6,57.9,60.7,57.9,52.3,98,83,49,30.18,30.00,13,4,13,0.10
2013-8-30,76.5,63.6,56.5,58.0,55.4,49.8,97,77,46,30.18,30.09,7,2,7,0.10
2013-8-31,81.9,64.2,53.1,58.1,52.5,47.4,96,70,35,30.18,30.03,11,3,11,0.00
2013-9-1,75.4,64.2,56.8,58.8,53.4,45.7,91,69,51,30.18,30.06,15,5,15,0.00
2013-9-2,70.3,59.3,47.5,48.8,45.1,42.2,89,61,39,30.24,30.12,16,5,16,0.00
2013-9-3,73.8,64.2,58.1,58.2,51.0,44.6,77,63,45,30.30,30.12,18,10,18,0.00
2013-9-4,77.2,60.6,47.5,50.6,45.8,42.8,90,61,32,30.36,30.15,10,3,10,0.00
2013-9-5,80.2,61.3,49.5,53.4,47.2,43.2,82,62,36,30.21,30.03,9,2,9,0.00
2013-9-6,80.8,62.5,50.9,53.5,47.1,42.7,78,58,36,30.09,29.97,9,3,9,0.00
2013-9-7,81.3,61.9,48.0,50.8,45.4,40.6,81,57,31,30.21,30.09,7,2,7,0.00
2013-9-8,83.1,62.9,49.5,52.0,46.8,42.2,79,58,31,30.27,30.09,8,2,8,0.00
2013-9-9,63.5,58.2,54.9,58.3,51.3,43.6,98,79,59,30.15,30.03,8,1,8,0.25
2013-9-10,72.9,59.8,51.1,61.3,56.3,50.5,98,89,64,30.15,29.97,10,2,10,0.25
2013-9-11,63.5,57.2,49.6,58.3,54.0,46.7,98,90,62,30.00,29.94,12,3,12,0.06
2013-9-12,68.2,57.8,47.8,53.2,49.9,46.5,98,77,50,30.00,29.88,8,2,8,0.02
2013-9-13,67.6,56.5,51.6,51.0,48.6,47.0,88,76,49,30.06,29.97,14,4,14,0.02
2013-9-14,57.4,53.6,50.5,56.1,52.2,48.2,98,95,86,30.06,29.91,13,5,13,0.34
2013-9-15,71.1,58.3,46.6,60.0,53.9,46.0,98,86,63,30.03,29.77,8,3,8,0.34
2013-9-16,72.5,61.0,51.6,61.8,56.5,51.1,98,86,67,29.80,29.56,8,1,8,0.00
2013-9-17,57.6,51.5,47.7,56.3,46.0,39.6,98,82,72,29.71,29.50,12,6,12,0.00
2013-9-18,60.1,52.2,43.7,48.6,44.2,39.9,95,76,48,29.71,29.56,12,5,12,0.00
2013-9-19,61.7,55.8,32.0,99.9,42.6,26.2,79,59,42,29.94,29.68,21,10,21,0.00
2013-9-20,64.8,54.3,45.5,49.1,45.2,42.2,89,73,50,30.06,29.91,12,9,12,0.00
2013-9-21,67.5,59.1,51.4,52.0,49.8,46.5,91,72,54,30.24,30.09,15,7,15,0.00
2013-9-22,68.2,58.9,51.3,49.8,46.1,44.3,78,64,45,30.30,30.21,8,2,8,0.00
2013-9-23,65.5,57.2,50.2,54.1,49.6,44.3,84,76,63,30.21,29.97,24,7,24,0.00
2013-9-24,65.5,61.0,53.6,53.2,50.7,47.6,82,69,62,29.97,29.91,15,7,15,0.00
2013-9-25,65.8,59.5,53.4,52.5,49.3,44.4,85,69,59,30.03,29.91,9,3,9,0.00
2013-9-26,68.4,57.9,50.0,59.5,51.6,43.6,92,80,62,29.94,29.80,16,4,16,0.04
2013-9-27,59.9,52.3,43.5,47.7,44.2,40.5,92,74,56,30.12,30.03,9,3,9,0.00
2013-9-28,63.9,52.2,42.6,47.2,41.4,38.2,94,68,44,30.06,29.94,7,2,7,0.00
2013-9-29,58.8,51.9,42.4,42.4,39.4,36.2,87,63,50,30.03,29.91,14,5,14,0.00
2013-9-30,58.5,54.4,51.1,40.4,37.9,36.0,61,54,48,29.85,29.80,18,7,18,0.00
2013-10-1,59.5,52.1,46.2,41.4,37.8,34.9,65,58,49,29.94,29.80,10,5,10,0.00
2013-10-2,53.6,48.5,38.5,37.2,32.0,22.5,67,54,39,30.33,29.94,18,5,18,0.00
2013-10-3,53.4,41.7,33.4,28.3,23.5,20.3,60,49,37,30.48,30.33,13,4,13,0.00
2013-10-4,55.4,38.8,29.5,30.8,24.2,19.9,72,57,38,30.50,30.39,8,2,8,0.00
2013-10-5,58.5,41.4,28.6,32.9,26.8,22.3,77,58,37,30.42,30.21,14,2,14,0.00
2013-10-6,61.7,52.2,44.8,36.9,34.8,32.8,69,53,38,30.33,30.24,6,1,6,0.00
2013-10-7,65.3,53.1,45.1,40.6,37.6,34.8,75,57,38,30.39,30.30,8,1,8,0.00
2013-10-8,66.9,52.6,42.1,40.9,37.6,34.4,77,58,37,30.39,30.27,3,0,3,0.00
2013-10-9,61.2,56.7,52.3,46.2,43.6,36.8,79,62,55,30.21,30.03,7,1,7,0.00
2013-10-10,55.8,53.0,50.9,52.7,50.2,46.0,96,90,79,30.03,29.88,10,3,10,0.03
2013-10-11,68.5,63.0,52.9,57.0,54.9,52.3,98,76,64,30.09,29.97,15,6,15,0.01
2013-10-12,71.8,61.5,53.1,59.8,56.2,52.2,98,84,63,30.18,30.09,8,3,8,0.03
2013-10-13,66.6,57.8,48.0,60.4,54.4,45.3,98,89,65,30.21,30.09,9,2,9,0.15
2013-10-14,64.6,53.9,45.3,54.0,49.2,44.0,96,85,67,30.21,30.09,6,1,6,0.00
2013-10-15,63.7,54.6,45.3,58.0,51.1,43.4,98,89,67,30.09,29.83,12,2,12,0.02
2013-10-16,50.9,48.1,44.6,50.2,47.4,43.5,98,97,89,29.83,29.62,20,7,20,0.79
2013-10-17,59.2,51.8,47.1,49.9,45.3,40.0,98,80,51,29.97,29.77,15,6,15,0.79
2013-10-18,58.5,51.4,43.3,49.9,44.3,40.4,98,78,54,30.12,29.94,15,7,15,0.06
2013-10-19,55.6,50.6,46.4,43.0,40.3,38.6,74,68,61,30.30,30.21,8,4,8,0.00
2013-10-20,64.8,53.6,43.0,53.3,46.2,38.5,89,76,62,30.27,30.09,6,2,6,0.00
2013-10-21,68.4,55.3,48.4,56.0,50.8,46.9,98,86,59,30.18,30.09,8,1,8,0.00
2013-10-22,65.3,56.1,46.9,58.6,53.1,46.2,98,90,78,30.18,30.09,8,2,8,0.00
2013-10-23,73.2,64.0,57.6,58.1,55.3,51.3,89,75,48,30.12,29.97,14,3,14,0.00
2013-10-24,70.7,60.0,50.2,57.2,53.8,49.1,98,81,57,30.21,30.09,8,2,8,0.00
2013-10-25,71.4,58.3,50.2,59.0,52.7,49.1,97,83,62,30.21,30.12,6,1,6,0.00
2013-10-26,69.3,61.4,50.7,56.4,53.2,38.1,93,75,60,30.18,30.09,10,2,10,0.00
2013-10-27,69.1,62.0,50.7,58.9,55.0,48.8,94,78,62,30.06,29.91,10,3,10,0.00
2013-10-28,64.8,57.0,51.6,55.4,52.7,49.8,97,86,72,30.06,29.91,8,1,6,0.00
2013-10-29,66.9,55.1,48.2,56.8,51.0,47.1,98,87,69,30.09,29.91,12,2,12,0.13
2013-10-30,60.1,52.9,46.4,51.6,45.9,38.2,98,78,51,30.30,30.06,14,4,14,0.15
2013-10-31,58.1,47.5,39.4,43.1,38.9,34.8,88,73,48,30.39,30.27,6,1,6,0.00
2013-11-1,57.4,51.9,43.9,48.8,43.3,36.8,86,73,61,30.30,30.15,10,2,10,0.00
2013-11-2,61.5,57.9,52.5,54.9,52.7,48.0,95,83,70,30.00,29.85,13,5,13,0.01
2013-11-3,62.8,54.0,47.7,58.5,50.5,42.5,96,88,77,29.88,29.62,20,7,20,0.22
2013-11-4,52.0,48.1,42.4,49.1,44.4,40.1,96,87,73,29.94,29.59,8,2,8,0.22
2013-11-5,52.7,48.0,42.4,52.0,47.4,41.9,98,98,80,29.50,29.44,13,5,13,0.52
2013-11-6,54.3,45.2,35.8,43.0,39.2,35.3,98,81,52,29.85,29.47,17,4,17,0.52
2013-11-7,56.8,49.4,44.8,49.2,44.7,39.2,98,84,65,30.06,29.85,12,3,12,0.01
2013-11-8,57.9,49.2,40.5,52.3,47.3,39.9,98,93,79,30.06,29.97,8,2,8,0.00
2013-11-9,57.9,52.4,48.2,52.1,49.7,47.7,98,91,73,29.97,29.85,15,2,15,0.14
2013-11-10,53.4,47.7,44.1,47.9,45.0,42.0,98,91,66,29.85,29.74,8,3,8,0.02
2013-11-11,50.9,48.9,46.9,46.8,43.0,37.8,97,81,64,30.27,29.77,15,6,15,0.08
2013-11-12,55.2,51.2,45.5,43.4,41.8,36.7,86,70,61,30.33,30.27,8,2,8,0.00
2013-11-13,49.1,46.0,43.7,48.0,43.2,40.4,96,90,87,30.30,30.21,8,5,8,0.00
2013-11-14,46.8,45.2,44.4,39.1,36.6,34.7,76,72,68,30.18,30.12,6,2,6,0.00
2013-11-15,48.0,44.9,43.9,40.4,36.5,33.6,84,72,67,30.39,30.15,10,3,10,0.00
2013-11-16,54.9,46.5,37.6,44.9,40.8,36.0,94,81,65,30.36,30.33,6,1,6,0.00
2013-11-17,50.0,46.0,42.4,47.2,42.9,41.1,97,89,80,30.30,30.21,5,1,5,0.00
2013-11-18,42.8,40.8,39.0,42.0,40.2,38.5,98,98,96,30.24,30.06,9,3,9,0.00
2013-11-19,43.9,41.9,40.3,42.0,40.7,39.5,98,95,92,30.06,29.74,13,6,13,0.00
2013-11-20,49.8,47.1,41.0,47.7,45.4,40.2,98,94,87,29.80,29.56,12,5,12,0.13
2013-11-21,46.2,41.9,36.7,45.7,41.4,36.2,98,98,98,29.71,29.56,10,3,10,0.12
2013-11-22,49.6,48.0,46.4,49.1,47.3,45.9,98,98,96,29.77,29.68,4,2,4,0.00
2013-11-23,52.7,49.8,46.2,47.5,45.4,43.3,91,85,80,29.77,29.71,17,6,17,0.00
2013-11-24,47.3,45.0,41.4,44.8,43.9,40.8,98,96,87,29.74,29.68,10,3,10,0.55
2013-11-25,41.2,35.9,33.1,40.7,30.0,22.8,98,80,60,30.06,29.68,15,8,15,0.72
2013-11-26,37.6,33.8,31.1,27.4,25.4,20.8,81,72,57,30.21,30.03,10,5,10,0.00
2013-11-27,38.7,30.9,23.9,22.4,19.9,18.6,81,64,46,30.42,30.21,10,3,10,0.00
2013-11-28,35.1,26.9,21.2,30.7,21.9,17.4,92,82,54,30.42,30.21,13,3,13,0.00
2013-11-29,42.8,37.7,34.3,32.0,29.9,28.5,82,74,61,30.21,30.03,15,4,15,0.00
2013-11-30,38.8,33.7,27.1,30.2,27.7,24.3,89,79,70,30.27,30.03,6,1,6,0.00
2013-12-1,42.8,32.4,25.3,33.5,27.3,23.3,97,82,58,30.30,30.21,1,0,0,0.00
2013-12-2,45.3,36.8,29.7,33.9,29.3,23.5,88,74,58,30.59,30.21,1,1,0,0.00
2013-12-3,37.8,30.8,24.8,25.8,21.9,19.4,84,70,55,30.62,30.48,6,1,6,0.00
2013-12-4,28.4,26.4,23.9,27.4,25.3,19.4,98,96,79,30.36,30.18,4,0,4,0.00
2013-12-5,40.1,35.8,30.2,30.9,28.6,24.0,88,75,62,30.24,29.91,14,4,14,0.00
2013-12-6,40.5,37.3,34.5,29.9,23.2,20.3,76,57,48,29.83,29.77,0,0,0,0.00
2013-12-7,37.4,34.8,32.7,26.7,21.7,18.0,77,59,48,30.18,30.03,0,0,0,0.00
2013-12-8,39.7,38.4,36.3,34.3,32.8,31.4,91,80,73,30.33,30.24,0,0,0,0.00
2013-12-9,44.4,43.9,41.9,38.9,37.4,34.5,86,78,69,30.24,30.12,0,0,0,0.00
2013-12-10,42.3,34.1,24.1,38.8,26.8,17.3,88,75,61,30.74,30.24,4,0,4,0.00
2013-12-11,34.9,29.1,23.0,21.6,19.8,17.0,79,68,52,30.74,30.56,7,1,7,0.00
2013-12-12,34.3,33.4,27.9,31.2,29.5,21.6,94,86,72,30.56,30.39,6,2,6,0.00
2013-12-13,31.5,30.5,29.3,29.6,28.3,27.0,94,91,90,30.36,30.27,7,2,7,0.00
2013-12-14,31.6,30.5,28.9,28.8,28.2,27.4,97,91,88,30.44,30.30,5,2,5,0.00
2013-12-15,35.2,32.2,29.1,34.0,31.4,26.6,98,97,90,30.56,30.44,7,1,7,0.00
2013-12-16,34.0,33.0,31.8,33.5,32.5,31.3,98,98,98,30.62,30.53,6,2,6,0.00
2013-12-17,32.4,31.5,30.0,31.9,31.0,29.5,98,98,98,30.62,30.50,6,2,6,0.00
2013-12-18,31.1,28.2,26.8,30.6,27.7,26.3,98,98,98,30.50,30.27,8,2,8,0.00
2013-12-19,29.1,27.8,26.2,28.6,27.3,25.8,98,98,98,30.30,30.09,9,4,9,0.00
2013-12-20,28.9,28.3,27.5,28.4,27.8,26.2,98,98,97,30.44,30.21,7,2,7,0.00
2013-12-21,38.1,33.8,28.6,37.2,32.9,27.7,97,97,94,30.62,30.44,6,2,6,0.01
2013-12-22,32.7,31.1,29.3,32.0,30.4,28.6,97,97,97,30.59,30.36,9,4,9,0.00
2013-12-23,38.5,35.8,32.5,37.7,35.0,31.8,97,97,95,30.36,30.27,6,2,6,0.00
2013-12-24,39.7,37.2,30.6,39.0,36.4,29.8,97,97,97,30.44,30.00,10,4,10,0.00
2013-12-25,49.6,42.3,34.5,38.3,34.1,30.2,97,73,59,30.03,29.77,11,4,11,0.00
2013-12-26,45.9,42.6,36.3,42.9,38.4,33.1,95,85,69,29.80,29.62,12,6,12,0.06
2013-12-27,51.1,44.6,35.4,43.9,40.0,33.5,94,84,74,30.06,29.71,10,3,10,0.05
2013-12-28,46.8,39.3,33.3,44.7,38.2,32.5,97,96,91,30.09,29.94,6,1,6,0.00
2013-12-29,45.9,40.3,35.8,42.8,38.2,35.0,97,92,81,30.21,29.97,8,2,8,0.00
2013-12-30,45.7,42.5,35.1,41.0,38.2,32.1,96,85,78,30.42,30.21,6,2,6,0.00
2013-12-31,39.0,36.2,34.5,36.6,34.5,31.2,97,94,78,30.33,30.21,10,4,10,0.00
2014-1-1,37.8,36.0,34.5,35.4,34.0,32.4,97,92,87,30.24,30.12,7,3,7,0.00
2014-1-2,41.0,38.1,34.9,36.7,34.7,32.8,94,87,83,30.12,29.94,10,4,10,0.00